Year,Month,Day,Hour,Minute,Value (Times are PST for temperature in C)
2014,04,28,00,00,4.80
2014,04,28,00,01,4.80
2014,04,28,00,02,4.80
2014,04,28,00,03,4.80
2014,04,28,00,04,4.80
2014,04,28,00,05,4.80
2014,04,28,00,06,4.80
2014,04,28,00,07,4.80
2014,04,28,00,08,4.80
2014,04,28,00,09,4.80
2014,04,28,00,10,4.70
2014,04,28,00,11,4.70
2014,04,28,00,12,4.70
2014,04,28,00,13,4.70
2014,04,28,00,14,4.60
2014,04,28,00,15,4.60
2014,04,28,00,16,4.50
2014,04,28,00,17,4.40
2014,04,28,00,18,4.40
2014,04,28,00,19,4.40
2014,04,28,00,20,4.30
2014,04,28,00,21,4.30
2014,04,28,00,22,4.30
2014,04,28,00,23,4.30
2014,04,28,00,24,4.30
2014,04,28,00,25,4.30
2014,04,28,00,26,4.30
2014,04,28,00,27,4.30
2014,04,28,00,28,4.30
2014,04,28,00,29,4.30
2014,04,28,00,30,4.30
2014,04,28,00,31,4.40
2014,04,28,00,32,4.40
2014,04,28,00,33,4.40
2014,04,28,00,34,4.40
2014,04,28,00,35,4.40
2014,04,28,00,36,4.40
2014,04,28,00,37,4.40
2014,04,28,00,38,4.40
2014,04,28,00,39,4.40
2014,04,28,00,40,4.40
2014,04,28,00,41,4.40
2014,04,28,00,42,4.40
2014,04,28,00,43,4.40
2014,04,28,00,44,4.40
2014,04,28,00,45,4.40
2014,04,28,00,46,4.40
2014,04,28,00,47,4.40
2014,04,28,00,48,4.50
2014,04,28,00,49,4.50
2014,04,28,00,50,4.50
2014,04,28,00,51,4.50
2014,04,28,00,52,4.50
2014,04,28,00,53,4.50
2014,04,28,00,54,4.50
2014,04,28,00,55,4.50
2014,04,28,00,56,4.50
2014,04,28,00,57,4.50
2014,04,28,00,58,4.50
2014,04,28,00,59,4.50
2014,04,28,01,00,4.60
2014,04,28,01,01,4.60
2014,04,28,01,02,4.60
2014,04,28,01,03,4.60
2014,04,28,01,04,4.70
2014,04,28,01,05,4.70
2014,04,28,01,06,4.70
2014,04,28,01,07,4.60
2014,04,28,01,08,4.60
2014,04,28,01,09,4.60
2014,04,28,01,10,4.60
2014,04,28,01,11,4.60
2014,04,28,01,12,4.60
2014,04,28,01,13,4.60
2014,04,28,01,14,4.60
2014,04,28,01,15,4.60
2014,04,28,01,16,4.50
2014,04,28,01,17,4.50
2014,04,28,01,18,4.50
2014,04,28,01,19,4.50
2014,04,28,01,20,4.50
2014,04,28,01,21,4.50
2014,04,28,01,22,4.50
2014,04,28,01,23,4.50
2014,04,28,01,24,4.50
2014,04,28,01,25,4.50
2014,04,28,01,26,4.50
2014,04,28,01,27,4.50
2014,04,28,01,28,4.50
2014,04,28,01,29,4.50
2014,04,28,01,30,4.50
2014,04,28,01,31,4.60
2014,04,28,01,32,4.60
2014,04,28,01,33,4.60
2014,04,28,01,34,4.60
2014,04,28,01,35,4.60
2014,04,28,01,36,4.60
2014,04,28,01,37,4.60
2014,04,28,01,38,4.60
2014,04,28,01,39,4.60
2014,04,28,01,40,4.60
2014,04,28,01,41,4.60
2014,04,28,01,42,4.60
2014,04,28,01,43,4.60
2014,04,28,01,44,4.60
2014,04,28,01,45,4.60
2014,04,28,01,46,4.60
2014,04,28,01,47,4.60
2014,04,28,01,48,4.60
2014,04,28,01,49,4.60
2014,04,28,01,50,4.60
2014,04,28,01,51,4.60
2014,04,28,01,52,4.60
2014,04,28,01,53,4.60
2014,04,28,01,54,4.60
2014,04,28,01,55,4.60
2014,04,28,01,56,4.60
2014,04,28,01,57,4.60
2014,04,28,01,58,4.60
2014,04,28,01,59,4.60
2014,04,28,02,00,4.60
2014,04,28,02,01,4.60
2014,04,28,02,02,4.60
2014,04,28,02,03,4.60
2014,04,28,02,04,4.60
2014,04,28,02,05,4.60
2014,04,28,02,06,4.60
2014,04,28,02,07,4.60
2014,04,28,02,08,4.60
2014,04,28,02,09,4.60
2014,04,28,02,10,4.60
2014,04,28,02,11,4.60
2014,04,28,02,12,4.60
2014,04,28,02,13,4.60
2014,04,28,02,14,4.60
2014,04,28,02,15,4.60
2014,04,28,02,16,4.70
2014,04,28,02,17,4.70
2014,04,28,02,18,4.70
2014,04,28,02,19,4.70
2014,04,28,02,20,4.70
2014,04,28,02,21,4.70
2014,04,28,02,22,4.80
2014,04,28,02,23,4.70
2014,04,28,02,24,4.70
2014,04,28,02,25,4.80
2014,04,28,02,26,4.70
2014,04,28,02,27,4.70
2014,04,28,02,28,4.70
2014,04,28,02,29,4.70
2014,04,28,02,30,4.70
2014,04,28,02,31,4.70
2014,04,28,02,32,4.60
2014,04,28,02,33,4.60
2014,04,28,02,34,4.60
2014,04,28,02,35,4.50
2014,04,28,02,36,4.50
2014,04,28,02,37,4.40
2014,04,28,02,38,4.40
2014,04,28,02,39,4.40
2014,04,28,02,40,4.40
2014,04,28,02,41,4.40
2014,04,28,02,42,4.40
2014,04,28,02,43,4.40
2014,04,28,02,44,4.40
2014,04,28,02,45,4.40
2014,04,28,02,46,4.50
2014,04,28,02,47,4.50
2014,04,28,02,48,4.60
2014,04,28,02,49,4.60
2014,04,28,02,50,4.60
2014,04,28,02,51,4.70
2014,04,28,02,52,4.70
2014,04,28,02,53,4.80
2014,04,28,02,54,4.80
2014,04,28,02,55,4.90
2014,04,28,02,56,4.90
2014,04,28,02,57,5.00
2014,04,28,02,58,5.00
2014,04,28,02,59,5.00
2014,04,28,03,00,5.10
2014,04,28,03,01,5.10
2014,04,28,03,02,5.10
2014,04,28,03,03,5.10
2014,04,28,03,04,5.10
2014,04,28,03,05,5.10
2014,04,28,03,06,5.10
2014,04,28,03,07,5.10
2014,04,28,03,08,5.10
2014,04,28,03,09,5.10
2014,04,28,03,10,5.00
2014,04,28,03,11,5.00
2014,04,28,03,12,5.00
2014,04,28,03,13,4.90
2014,04,28,03,14,4.90
2014,04,28,03,15,4.90
2014,04,28,03,16,4.80
2014,04,28,03,17,4.80
2014,04,28,03,18,4.70
2014,04,28,03,19,4.70
2014,04,28,03,20,4.60
2014,04,28,03,21,4.60
2014,04,28,03,22,4.60
2014,04,28,03,23,4.60
2014,04,28,03,24,4.50
2014,04,28,03,25,4.50
2014,04,28,03,26,4.50
2014,04,28,03,27,4.50
2014,04,28,03,28,4.50
2014,04,28,03,29,4.50
2014,04,28,03,30,4.50
2014,04,28,03,31,4.50
2014,04,28,03,32,4.50
2014,04,28,03,33,4.60
2014,04,28,03,34,4.60
2014,04,28,03,35,4.60
2014,04,28,03,36,4.60
2014,04,28,03,37,4.50
2014,04,28,03,38,4.50
2014,04,28,03,39,4.50
2014,04,28,03,40,4.50
2014,04,28,03,41,4.40
2014,04,28,03,42,4.40
2014,04,28,03,43,4.40
2014,04,28,03,44,4.30
2014,04,28,03,45,4.30
2014,04,28,03,49,4.30
2014,04,28,03,50,4.30
2014,04,28,03,51,4.20
2014,04,28,03,52,4.20
2014,04,28,03,53,4.20
2014,04,28,03,54,4.20
2014,04,28,03,55,4.20
2014,04,28,03,56,4.20
2014,04,28,03,57,4.20
2014,04,28,03,58,4.20
2014,04,28,03,59,4.20
2014,04,28,04,00,4.20
2014,04,28,04,01,4.20
2014,04,28,04,02,4.10
2014,04,28,04,03,4.10
2014,04,28,04,04,4.10
2014,04,28,04,05,4.20
2014,04,28,04,06,4.20
2014,04,28,04,07,4.20
2014,04,28,04,08,4.20
2014,04,28,04,09,4.20
2014,04,28,04,10,4.20
2014,04,28,04,11,4.20
2014,04,28,04,12,4.20
2014,04,28,04,13,4.20
2014,04,28,04,14,4.20
2014,04,28,04,15,4.20
2014,04,28,04,16,4.20
2014,04,28,04,17,4.20
2014,04,28,04,18,4.20
2014,04,28,04,19,4.20
2014,04,28,04,20,4.10
2014,04,28,04,21,4.10
2014,04,28,04,22,4.10
2014,04,28,04,23,4.10
2014,04,28,04,24,4.10
2014,04,28,04,25,4.10
2014,04,28,04,26,4.10
2014,04,28,04,27,4.10
2014,04,28,04,28,4.10
2014,04,28,04,29,4.00
2014,04,28,04,30,4.00
2014,04,28,04,31,4.00
2014,04,28,04,32,4.00
2014,04,28,04,33,3.90
2014,04,28,04,34,3.90
2014,04,28,04,35,3.90
2014,04,28,04,36,3.80
2014,04,28,04,37,3.80
2014,04,28,04,38,3.80
2014,04,28,04,39,3.80
2014,04,28,04,40,3.70
2014,04,28,04,41,3.70
2014,04,28,04,42,3.60
2014,04,28,04,43,3.60
2014,04,28,04,44,3.60
2014,04,28,04,45,3.50
2014,04,28,04,46,3.50
2014,04,28,04,47,3.40
2014,04,28,04,48,3.40
2014,04,28,04,49,3.40
2014,04,28,04,50,3.40
2014,04,28,04,51,3.30
2014,04,28,04,52,3.30
2014,04,28,04,53,3.30
2014,04,28,04,54,3.30
2014,04,28,04,55,3.30
2014,04,28,04,56,3.30
2014,04,28,04,57,3.30
2014,04,28,04,58,3.30
2014,04,28,04,59,3.30
2014,04,28,05,00,3.30
2014,04,28,05,01,3.30
2014,04,28,05,02,3.20
2014,04,28,05,03,3.20
2014,04,28,05,04,3.20
2014,04,28,05,05,3.20
2014,04,28,05,06,3.20
2014,04,28,05,07,3.20
2014,04,28,05,08,3.20
2014,04,28,05,09,3.20
2014,04,28,05,10,3.20
2014,04,28,05,11,3.20
2014,04,28,05,12,3.30
2014,04,28,05,13,3.30
2014,04,28,05,14,3.30
2014,04,28,05,15,3.30
2014,04,28,05,16,3.30
2014,04,28,05,17,3.30
2014,04,28,05,18,3.40
2014,04,28,05,19,3.40
2014,04,28,05,20,3.40
2014,04,28,05,21,3.40
2014,04,28,05,22,3.40
2014,04,28,05,23,3.40
2014,04,28,05,24,3.40
2014,04,28,05,25,3.40
2014,04,28,05,26,3.40
2014,04,28,05,27,3.40
2014,04,28,05,28,3.40
2014,04,28,05,29,3.40
2014,04,28,05,30,3.30
2014,04,28,05,31,3.30
2014,04,28,05,32,3.30
2014,04,28,05,33,3.30
2014,04,28,05,34,3.30
2014,04,28,05,35,3.30
2014,04,28,05,36,3.30
2014,04,28,05,37,3.20
2014,04,28,05,38,3.20
2014,04,28,05,39,3.20
2014,04,28,05,40,3.20
2014,04,28,05,41,3.20
2014,04,28,05,42,3.10
2014,04,28,05,43,3.10
2014,04,28,05,44,3.10
2014,04,28,05,45,3.00
2014,04,28,05,46,3.00
2014,04,28,05,47,3.00
2014,04,28,05,48,2.90
2014,04,28,05,49,2.90
2014,04,28,05,50,2.90
2014,04,28,05,51,2.90
2014,04,28,05,52,2.90
2014,04,28,05,53,2.90
2014,04,28,05,54,2.90
2014,04,28,05,55,2.90
2014,04,28,05,56,2.90
2014,04,28,05,57,2.90
2014,04,28,05,58,2.90
2014,04,28,05,59,2.90
2014,04,28,06,00,2.90
2014,04,28,06,01,2.90
2014,04,28,06,02,2.90
2014,04,28,06,03,2.90
2014,04,28,06,04,2.90
2014,04,28,06,05,2.90
2014,04,28,06,06,2.90
2014,04,28,06,07,2.80
2014,04,28,06,08,2.90
2014,04,28,06,09,2.80
2014,04,28,06,10,2.80
2014,04,28,06,11,2.80
2014,04,28,06,12,2.80
2014,04,28,06,13,2.80
2014,04,28,06,14,2.80
2014,04,28,06,15,2.80
2014,04,28,06,16,2.80
2014,04,28,06,17,2.80
2014,04,28,06,18,2.80
2014,04,28,06,19,2.80
2014,04,28,06,20,2.80
2014,04,28,06,21,2.80
2014,04,28,06,22,2.80
2014,04,28,06,23,2.80
2014,04,28,06,24,2.90
2014,04,28,06,25,2.90
2014,04,28,06,26,2.90
2014,04,28,06,27,2.90
2014,04,28,06,28,2.90
2014,04,28,06,29,2.90
2014,04,28,06,30,2.90
2014,04,28,06,31,2.90
2014,04,28,06,32,2.90
2014,04,28,06,33,2.90
2014,04,28,06,34,2.90
2014,04,28,06,35,2.90
2014,04,28,06,36,2.90
2014,04,28,06,37,2.90
2014,04,28,06,38,2.90
2014,04,28,06,39,3.00
2014,04,28,06,40,3.00
2014,04,28,06,41,3.00
2014,04,28,06,42,3.00
2014,04,28,06,43,3.00
2014,04,28,06,44,3.10
2014,04,28,06,45,3.10
2014,04,28,06,46,3.10
2014,04,28,06,47,3.10
2014,04,28,06,48,3.20
2014,04,28,06,49,3.20
2014,04,28,06,50,3.20
2014,04,28,06,51,3.20
2014,04,28,06,52,3.20
2014,04,28,06,53,3.20
2014,04,28,06,54,3.20
2014,04,28,06,55,3.30
2014,04,28,06,56,3.30
2014,04,28,06,57,3.30
2014,04,28,06,58,3.30
2014,04,28,06,59,3.30
2014,04,28,07,00,3.40
2014,04,28,07,01,3.40
2014,04,28,07,02,3.50
2014,04,28,07,03,3.50
2014,04,28,07,04,3.60
2014,04,28,07,05,3.60
2014,04,28,07,06,3.60
2014,04,28,07,07,3.70
2014,04,28,07,08,3.80
2014,04,28,07,09,3.80
2014,04,28,07,10,3.80
2014,04,28,07,11,3.90
2014,04,28,07,12,3.90
2014,04,28,07,13,4.00
2014,04,28,07,14,4.00
2014,04,28,07,15,4.10
2014,04,28,07,16,4.20
2014,04,28,07,17,4.20
2014,04,28,07,18,4.30
2014,04,28,07,19,4.30
2014,04,28,07,20,4.40
2014,04,28,07,21,4.50
2014,04,28,07,22,4.60
2014,04,28,07,23,4.60
2014,04,28,07,24,4.70
2014,04,28,07,25,4.70
2014,04,28,07,26,4.70
2014,04,28,07,27,4.70
2014,04,28,07,28,4.70
2014,04,28,07,29,4.80
2014,04,28,07,30,4.80
2014,04,28,07,31,4.80
2014,04,28,07,32,4.90
2014,04,28,07,33,5.00
2014,04,28,07,34,5.00
2014,04,28,07,35,5.10
2014,04,28,07,36,5.10
2014,04,28,07,37,5.10
2014,04,28,07,38,5.20
2014,04,28,07,39,5.20
2014,04,28,07,40,5.30
2014,04,28,07,41,5.30
2014,04,28,07,42,5.30
2014,04,28,07,43,5.30
2014,04,28,07,44,5.30
2014,04,28,07,45,5.40
2014,04,28,07,46,5.40
2014,04,28,07,47,5.40
2014,04,28,07,48,5.50
2014,04,28,07,49,5.50
2014,04,28,07,50,5.60
2014,04,28,07,51,5.60
2014,04,28,07,52,5.70
2014,04,28,07,53,5.80
2014,04,28,07,54,5.80
2014,04,28,07,55,5.90
2014,04,28,07,56,6.00
2014,04,28,07,57,6.10
2014,04,28,07,58,6.30
2014,04,28,07,59,6.40
2014,04,28,08,00,6.50
2014,04,28,08,01,6.60
2014,04,28,08,02,6.70
2014,04,28,08,03,6.80
2014,04,28,08,04,6.90
2014,04,28,08,05,7.10
2014,04,28,08,06,7.20
2014,04,28,08,07,7.30
2014,04,28,08,08,7.50
2014,04,28,08,09,7.60
2014,04,28,08,10,7.70
2014,04,28,08,11,7.80
2014,04,28,08,12,7.90
2014,04,28,08,13,8.10
2014,04,28,08,14,8.20
2014,04,28,08,15,8.30
2014,04,28,08,16,8.40
2014,04,28,08,17,8.50
2014,04,28,08,18,8.50
2014,04,28,08,19,8.60
2014,04,28,08,20,8.70
2014,04,28,08,21,8.70
2014,04,28,08,22,8.80
2014,04,28,08,23,8.80
2014,04,28,08,24,8.90
2014,04,28,08,25,9.00
2014,04,28,08,26,9.00
2014,04,28,08,27,9.10
2014,04,28,08,28,9.10
2014,04,28,08,29,9.20
2014,04,28,08,30,9.20
2014,04,28,08,31,9.20
2014,04,28,08,32,9.20
2014,04,28,08,33,9.30
2014,04,28,08,34,9.30
2014,04,28,08,35,9.40
2014,04,28,08,36,9.40
2014,04,28,08,37,9.50
2014,04,28,08,38,9.60
2014,04,28,08,39,9.60
2014,04,28,08,40,9.60
2014,04,28,08,41,9.60
2014,04,28,08,42,9.60
2014,04,28,08,43,9.60
2014,04,28,08,44,9.70
2014,04,28,08,45,9.80
2014,04,28,08,46,9.80
2014,04,28,08,47,9.80
2014,04,28,08,48,9.90
2014,04,28,08,49,10.10
2014,04,28,08,50,10.20
2014,04,28,08,51,10.20
2014,04,28,08,52,10.20
2014,04,28,08,53,10.10
2014,04,28,08,54,10.10
2014,04,28,08,55,10.10
2014,04,28,08,56,10.00
2014,04,28,08,57,10.00
2014,04,28,08,58,10.10
2014,04,28,08,59,10.10
2014,04,28,09,00,10.10
2014,04,28,09,01,10.20
2014,04,28,09,02,10.20
2014,04,28,09,03,10.20
2014,04,28,09,04,10.20
2014,04,28,09,05,10.20
2014,04,28,09,06,10.20
2014,04,28,09,07,10.20
2014,04,28,09,08,10.20
2014,04,28,09,09,10.20
2014,04,28,09,10,10.20
2014,04,28,09,11,10.20
2014,04,28,09,12,10.20
2014,04,28,09,13,10.20
2014,04,28,09,14,10.30
2014,04,28,09,15,10.30
2014,04,28,09,16,10.30
2014,04,28,09,17,10.30
2014,04,28,09,18,10.30
2014,04,28,09,19,10.30
2014,04,28,09,20,10.30
2014,04,28,09,21,10.30
2014,04,28,09,22,10.20
2014,04,28,09,23,10.10
2014,04,28,09,24,10.10
2014,04,28,09,25,10.10
2014,04,28,09,26,10.10
2014,04,28,09,27,10.10
2014,04,28,09,28,10.10
2014,04,28,09,29,10.10
2014,04,28,09,30,10.20
2014,04,28,09,31,10.30
2014,04,28,09,32,10.30
2014,04,28,09,33,10.40
2014,04,28,09,34,10.40
2014,04,28,09,35,10.50
2014,04,28,09,36,10.50
2014,04,28,09,37,10.50
2014,04,28,09,38,10.40
2014,04,28,09,39,10.40
2014,04,28,09,40,10.50
2014,04,28,09,41,10.50
2014,04,28,09,42,10.40
2014,04,28,09,43,10.50
2014,04,28,09,44,10.50
2014,04,28,09,45,10.60
2014,04,28,09,46,10.60
2014,04,28,09,47,10.60
2014,04,28,09,48,10.50
2014,04,28,09,49,10.30
2014,04,28,09,50,10.30
2014,04,28,09,51,10.40
2014,04,28,09,52,10.50
2014,04,28,09,53,10.60
2014,04,28,09,54,10.60
2014,04,28,09,55,10.70
2014,04,28,09,56,10.80
2014,04,28,09,57,10.80
2014,04,28,09,58,10.80
2014,04,28,09,59,10.80
2014,04,28,10,00,10.80
2014,04,28,10,01,10.80
2014,04,28,10,02,10.70
2014,04,28,10,03,10.60
2014,04,28,10,04,10.50
2014,04,28,10,05,10.40
2014,04,28,10,06,10.30
2014,04,28,10,07,10.30
2014,04,28,10,08,10.20
2014,04,28,10,09,10.20
2014,04,28,10,10,10.20
2014,04,28,10,11,10.20
2014,04,28,10,12,10.20
2014,04,28,10,13,10.20
2014,04,28,10,14,10.20
2014,04,28,10,15,10.20
2014,04,28,10,16,10.20
2014,04,28,10,17,10.20
2014,04,28,10,18,10.30
2014,04,28,10,19,10.30
2014,04,28,10,20,10.40
2014,04,28,10,21,10.40
2014,04,28,10,22,10.40
2014,04,28,10,23,10.40
2014,04,28,10,24,10.40
2014,04,28,10,25,10.40
2014,04,28,10,26,10.40
2014,04,28,10,27,10.40
2014,04,28,10,28,10.40
2014,04,28,10,29,10.40
2014,04,28,10,30,10.40
2014,04,28,10,31,10.40
2014,04,28,10,32,10.40
2014,04,28,10,33,10.50
2014,04,28,10,34,10.50
2014,04,28,10,35,10.60
2014,04,28,10,36,10.70
2014,04,28,10,37,10.70
2014,04,28,10,38,10.80
2014,04,28,10,39,10.90
2014,04,28,10,40,11.00
2014,04,28,10,41,11.10
2014,04,28,10,42,11.20
2014,04,28,10,43,11.20
2014,04,28,10,44,11.30
2014,04,28,10,45,11.30
2014,04,28,10,46,11.40
2014,04,28,10,47,11.40
2014,04,28,10,48,11.40
2014,04,28,10,49,11.30
2014,04,28,10,50,11.30
2014,04,28,10,51,11.30
2014,04,28,10,52,11.30
2014,04,28,10,53,11.40
2014,04,28,10,54,11.40
2014,04,28,10,55,11.40
2014,04,28,10,56,11.30
2014,04,28,10,57,11.20
2014,04,28,10,58,11.10
2014,04,28,10,59,11.00
2014,04,28,11,00,10.90
2014,04,28,11,01,10.90
2014,04,28,11,02,10.80
2014,04,28,11,03,10.80
2014,04,28,11,04,10.70
2014,04,28,11,05,10.70
2014,04,28,11,06,10.70
2014,04,28,11,07,10.70
2014,04,28,11,08,10.70
2014,04,28,11,09,10.70
2014,04,28,11,10,10.70
2014,04,28,11,11,10.70
2014,04,28,11,12,10.70
2014,04,28,11,13,10.70
2014,04,28,11,14,10.70
2014,04,28,11,15,10.60
2014,04,28,11,16,10.60
2014,04,28,11,17,10.60
2014,04,28,11,18,10.60
2014,04,28,11,19,10.70
2014,04,28,11,20,10.80
2014,04,28,11,21,10.80
2014,04,28,11,22,10.80
2014,04,28,11,23,10.80
2014,04,28,11,24,10.80
2014,04,28,11,25,10.80
2014,04,28,11,26,10.80
2014,04,28,11,27,10.80
2014,04,28,11,28,10.80
2014,04,28,11,29,10.90
2014,04,28,11,30,11.10
2014,04,28,11,31,11.20
2014,04,28,11,32,11.30
2014,04,28,11,33,11.40
2014,04,28,11,34,11.60
2014,04,28,11,35,11.70
2014,04,28,11,36,11.80
2014,04,28,11,37,11.90
2014,04,28,11,38,12.00
2014,04,28,11,39,12.10
2014,04,28,11,40,12.20
2014,04,28,11,41,12.20
2014,04,28,11,42,12.20
2014,04,28,11,43,12.20
2014,04,28,11,44,12.20
2014,04,28,11,45,12.10
2014,04,28,11,46,12.10
2014,04,28,11,47,12.00
2014,04,28,11,48,12.00
2014,04,28,11,49,12.10
2014,04,28,11,50,12.10
2014,04,28,11,51,12.00
2014,04,28,11,52,12.00
2014,04,28,11,53,11.90
2014,04,28,11,54,11.90
2014,04,28,11,55,11.90
2014,04,28,11,56,11.80
2014,04,28,11,57,11.80
2014,04,28,11,58,11.80
2014,04,28,11,59,11.70
2014,04,28,12,00,11.70
2014,04,28,12,01,11.70
2014,04,28,12,02,11.70
2014,04,28,12,03,11.60
2014,04,28,12,04,11.60
2014,04,28,12,05,11.60
2014,04,28,12,06,11.60
2014,04,28,12,07,11.70
2014,04,28,12,08,11.80
2014,04,28,12,09,11.80
2014,04,28,12,10,11.90
2014,04,28,12,11,11.80
2014,04,28,12,12,11.70
2014,04,28,12,13,11.60
2014,04,28,12,14,11.50
2014,04,28,12,15,11.50
2014,04,28,12,16,11.50
2014,04,28,12,17,11.60
2014,04,28,12,18,11.70
2014,04,28,12,19,11.70
2014,04,28,12,20,11.80
2014,04,28,12,21,11.90
2014,04,28,12,22,12.00
2014,04,28,12,23,12.00
2014,04,28,12,24,12.10
2014,04,28,12,25,12.10
2014,04,28,12,26,12.10
2014,04,28,12,27,12.10
2014,04,28,12,28,12.20
2014,04,28,12,29,12.20
2014,04,28,12,30,12.20
2014,04,28,12,31,12.20
2014,04,28,12,32,12.10
2014,04,28,12,33,12.10
2014,04,28,12,34,12.10
2014,04,28,12,35,12.20
2014,04,28,12,36,12.20
2014,04,28,12,37,12.30
2014,04,28,12,38,12.20
2014,04,28,12,39,12.10
2014,04,28,12,40,12.00
2014,04,28,12,41,12.00
2014,04,28,12,42,12.00
2014,04,28,12,43,12.10
2014,04,28,12,44,12.10
2014,04,28,12,45,12.20
2014,04,28,12,46,12.30
2014,04,28,12,47,12.40
2014,04,28,12,48,12.50
2014,04,28,12,49,12.70
2014,04,28,12,50,12.80
2014,04,28,12,51,12.90
2014,04,28,12,52,13.00
2014,04,28,12,53,13.10
2014,04,28,12,54,13.10
2014,04,28,12,55,13.20
2014,04,28,12,56,13.20
2014,04,28,12,57,13.20
2014,04,28,12,58,13.20
2014,04,28,12,59,13.20
2014,04,28,13,00,13.10
2014,04,28,13,01,13.00
2014,04,28,13,02,12.90
2014,04,28,13,03,13.00
2014,04,28,13,04,13.00
2014,04,28,13,05,13.10
2014,04,28,13,06,13.10
2014,04,28,13,07,13.10
2014,04,28,13,08,13.10
2014,04,28,13,09,13.00
2014,04,28,13,10,13.00
2014,04,28,13,11,12.90
2014,04,28,13,12,12.80
2014,04,28,13,13,12.80
2014,04,28,13,14,12.80
2014,04,28,13,15,12.80
2014,04,28,13,16,12.80
2014,04,28,13,17,12.80
2014,04,28,13,18,12.80
2014,04,28,13,19,12.80
2014,04,28,13,20,12.80
2014,04,28,13,21,12.90
2014,04,28,13,22,12.90
2014,04,28,13,23,13.00
2014,04,28,13,24,13.00
2014,04,28,13,25,13.00
2014,04,28,13,26,13.10
2014,04,28,13,27,13.20
2014,04,28,13,28,13.30
2014,04,28,13,29,13.40
2014,04,28,13,30,13.50
2014,04,28,13,31,13.60
2014,04,28,13,32,13.60
2014,04,28,13,33,13.50
2014,04,28,13,34,13.50
2014,04,28,13,35,13.40
2014,04,28,13,36,13.40
2014,04,28,13,37,13.30
2014,04,28,13,38,13.30
2014,04,28,13,39,13.30
2014,04,28,13,40,13.30
2014,04,28,13,41,13.30
2014,04,28,13,42,13.30
2014,04,28,13,43,13.30
2014,04,28,13,44,13.30
2014,04,28,13,45,13.30
2014,04,28,13,46,13.30
2014,04,28,13,47,13.40
2014,04,28,13,48,13.40
2014,04,28,13,49,13.40
2014,04,28,13,50,13.40
2014,04,28,13,51,13.50
2014,04,28,13,52,13.50
2014,04,28,13,53,13.50
2014,04,28,13,54,13.60
2014,04,28,13,55,13.60
2014,04,28,13,56,13.50
2014,04,28,13,57,13.40
2014,04,28,13,58,13.30
2014,04,28,13,59,13.20
2014,04,28,14,00,13.20
2014,04,28,14,01,13.30
2014,04,28,14,02,13.30
2014,04,28,14,03,13.40
2014,04,28,14,04,13.40
2014,04,28,14,05,13.50
2014,04,28,14,06,13.40
2014,04,28,14,07,13.40
2014,04,28,14,08,13.50
2014,04,28,14,09,13.50
2014,04,28,14,10,13.50
2014,04,28,14,11,13.50
2014,04,28,14,12,13.50
2014,04,28,14,13,13.50
2014,04,28,14,14,13.40
2014,04,28,14,15,13.40
2014,04,28,14,16,13.50
2014,04,28,14,17,13.60
2014,04,28,14,18,13.70
2014,04,28,14,19,13.60
2014,04,28,14,20,13.60
2014,04,28,14,21,13.50
2014,04,28,14,22,13.50
2014,04,28,14,23,13.40
2014,04,28,14,24,13.40
2014,04,28,14,25,13.40
2014,04,28,14,26,13.30
2014,04,28,14,27,13.30
2014,04,28,14,28,13.40
2014,04,28,14,29,13.40
2014,04,28,14,30,13.40
2014,04,28,14,31,13.50
2014,04,28,14,32,13.60
2014,04,28,14,33,13.50
2014,04,28,14,34,13.50
2014,04,28,14,35,13.40
2014,04,28,14,36,13.40
2014,04,28,14,37,13.30
2014,04,28,14,38,13.20
2014,04,28,14,39,13.20
2014,04,28,14,40,13.20
2014,04,28,14,41,13.30
2014,04,28,14,42,13.40
2014,04,28,14,43,13.40
2014,04,28,14,44,13.30
2014,04,28,14,45,13.40
2014,04,28,14,46,13.50
2014,04,28,14,47,13.50
2014,04,28,14,48,13.60
2014,04,28,14,49,13.60
2014,04,28,14,50,13.60
2014,04,28,14,51,13.60
2014,04,28,14,52,13.70
2014,04,28,14,53,13.70
2014,04,28,14,54,13.70
2014,04,28,14,55,13.70
2014,04,28,14,56,13.70
2014,04,28,14,57,13.70
2014,04,28,14,58,13.60
2014,04,28,14,59,13.60
2014,04,28,15,00,13.60
2014,04,28,15,01,13.60
2014,04,28,15,02,13.60
2014,04,28,15,03,13.70
2014,04,28,15,04,13.70
2014,04,28,15,05,13.70
2014,04,28,15,06,13.70
2014,04,28,15,07,13.60
2014,04,28,15,08,13.50
2014,04,28,15,09,13.40
2014,04,28,15,10,13.40
2014,04,28,15,11,13.50
2014,04,28,15,12,13.60
2014,04,28,15,13,13.60
2014,04,28,15,14,13.70
2014,04,28,15,15,13.80
2014,04,28,15,16,13.80
2014,04,28,15,17,13.80
2014,04,28,15,18,13.70
2014,04,28,15,19,13.60
2014,04,28,15,20,13.60
2014,04,28,15,21,13.60
2014,04,28,15,22,13.70
2014,04,28,15,23,13.70
2014,04,28,15,24,13.70
2014,04,28,15,25,13.70
2014,04,28,15,26,13.80
2014,04,28,15,27,13.80
2014,04,28,15,28,14.00
2014,04,28,15,29,14.10
2014,04,28,15,30,14.10
2014,04,28,15,31,14.20
2014,04,28,15,32,14.10
2014,04,28,15,33,14.10
2014,04,28,15,34,14.10
2014,04,28,15,35,14.00
2014,04,28,15,36,14.00
2014,04,28,15,37,13.90
2014,04,28,15,38,13.90
2014,04,28,15,39,13.90
2014,04,28,15,40,13.90
2014,04,28,15,41,13.90
2014,04,28,15,42,14.00
2014,04,28,15,43,14.00
2014,04,28,15,44,14.00
2014,04,28,15,45,14.00
2014,04,28,15,46,14.00
2014,04,28,15,47,14.00
2014,04,28,15,48,13.90
2014,04,28,15,49,13.90
2014,04,28,15,50,13.80
2014,04,28,15,51,13.70
2014,04,28,15,52,13.70
2014,04,28,15,53,13.70
2014,04,28,15,54,13.90
2014,04,28,15,55,14.00
2014,04,28,15,56,14.00
2014,04,28,15,57,14.00
2014,04,28,15,58,14.00
2014,04,28,15,59,14.10
2014,04,28,16,00,14.10
2014,04,28,16,01,14.10
2014,04,28,16,02,14.00
2014,04,28,16,03,14.00
2014,04,28,16,04,13.90
2014,04,28,16,05,13.90
2014,04,28,16,06,13.90
2014,04,28,16,07,13.90
2014,04,28,16,08,13.90
2014,04,28,16,09,13.90
2014,04,28,16,10,13.90
2014,04,28,16,11,13.90
2014,04,28,16,12,13.90
2014,04,28,16,13,13.90
2014,04,28,16,14,13.90
2014,04,28,16,15,13.80
2014,04,28,16,16,13.80
2014,04,28,16,17,13.80
2014,04,28,16,18,13.80
2014,04,28,16,19,13.80
2014,04,28,16,20,13.80
2014,04,28,16,21,13.70
2014,04,28,16,22,13.70
2014,04,28,16,23,13.70
2014,04,28,16,24,13.70
2014,04,28,16,25,13.70
2014,04,28,16,26,13.80
2014,04,28,16,27,13.80
2014,04,28,16,28,13.90
2014,04,28,16,29,14.00
2014,04,28,16,30,14.00
2014,04,28,16,31,14.00
2014,04,28,16,32,13.90
2014,04,28,16,33,13.90
2014,04,28,16,34,13.90
2014,04,28,16,35,13.80
2014,04,28,16,36,13.70
2014,04,28,16,37,13.70
2014,04,28,16,38,13.60
2014,04,28,16,39,13.60
2014,04,28,16,40,13.60
2014,04,28,16,41,13.60
2014,04,28,16,42,13.60
2014,04,28,16,43,13.70
2014,04,28,16,44,13.70
2014,04,28,16,45,13.70
2014,04,28,16,46,13.80
2014,04,28,16,47,13.80
2014,04,28,16,48,13.70
2014,04,28,16,49,13.60
2014,04,28,16,50,13.60
2014,04,28,16,51,13.60
2014,04,28,16,52,13.60
2014,04,28,16,53,13.60
2014,04,28,16,54,13.60
2014,04,28,16,55,13.60
2014,04,28,16,56,13.60
2014,04,28,16,57,13.60
2014,04,28,16,58,13.60
2014,04,28,16,59,13.70
2014,04,28,17,00,13.80
2014,04,28,17,01,13.80
2014,04,28,17,02,13.80
2014,04,28,17,03,13.80
2014,04,28,17,04,13.80
2014,04,28,17,05,13.80
2014,04,28,17,06,13.90
2014,04,28,17,07,13.90
2014,04,28,17,08,13.90
2014,04,28,17,09,13.90
2014,04,28,17,10,14.00
2014,04,28,17,11,14.00
2014,04,28,17,12,14.10
2014,04,28,17,13,14.10
2014,04,28,17,14,14.10
2014,04,28,17,15,14.00
2014,04,28,17,16,13.90
2014,04,28,17,17,13.90
2014,04,28,17,18,13.90
2014,04,28,17,19,13.90
2014,04,28,17,20,13.90
2014,04,28,17,21,13.80
2014,04,28,17,22,13.80
2014,04,28,17,23,13.80
2014,04,28,17,24,13.80
2014,04,28,17,25,13.80
2014,04,28,17,26,13.80
2014,04,28,17,27,13.80
2014,04,28,17,28,13.80
2014,04,28,17,29,13.80
2014,04,28,17,30,13.90
2014,04,28,17,31,13.90
2014,04,28,17,32,13.90
2014,04,28,17,33,13.90
2014,04,28,17,34,13.80
2014,04,28,17,35,13.80
2014,04,28,17,36,13.80
2014,04,28,17,37,13.80
2014,04,28,17,38,13.80
2014,04,28,17,39,13.90
2014,04,28,17,40,13.90
2014,04,28,17,41,14.00
2014,04,28,17,42,14.00
2014,04,28,17,43,14.10
2014,04,28,17,44,14.10
2014,04,28,17,45,14.10